DW7098 Weather Reports


Display with metric or nautical units.
time (UTC)temp
F
wind
direction
speed
MPH
gust
MPH
rain 1hr
in
rain 24hr
in
rain mn
in
humidity
%
barometer
mb
20260903233101 63 53 2.0 7.0 0.00 0.00 0.00
20260903223059 63 83 1.0 6.0 0.00 0.00 0.00
20260903213033 62 63 1.0 6.0 0.00 0.00 0.00
20260903210107 63 98 2.0 9.0 0.00 0.00 0.00
20260903203046 63 30 3.0 7.0 0.00 0.00 0.00
20260903200114 62 54 3.0 8.0 0.00 0.00 0.00
20260903193036 61 264 1.0 8.0 0.00 0.00 0.00
20260903183041 59 205 2.0 5.0 0.00 0.00 0.00
20260903173054 58 83 1.0 4.0 0.00 0.00 0.00
20260903170106 56 64 2.0 6.0 0.00 0.00 0.00
20260903163038 56 45 2.0 5.0 0.00 0.00 0.00
20260903153055 55 52 2.0 6.0 0.00 0.00 0.00
20260903143104 54 58 0.0 2.0 0.00 0.00 0.00
20260903140113 54 58 0.0 1.0 0.00 0.00 0.00
20260903133047 54 73 0.0 2.0 0.00 0.00 0.00
20260903130120 54 63 3.0 4.0 0.00 0.00 0.00
20260903120122 55 76 2.0 3.0 0.00 0.00 0.00
20260903113044 55 80 2.0 4.0 0.00 0.00 0.00
20260903110109 55 101 1.0 4.0 0.00 0.00 0.00
20260903100107 55 269 0.0 2.0 0.00 0.00 0.00
20260903083025 56 87 0.0 2.0 0.00 0.00 0.00
20260903080100 56 258 0.0 2.0 0.00 0.00 0.00
20260903073050 56 167 0.0 1.0 0.00 0.00 0.00
20260903070109 56 268 0.0 2.0 0.00 0.00 0.00
20260903063040 56 24 0.0 1.0 0.00 0.00 0.00
20260903060109 57 70 2.0 4.0 0.00 0.00 0.00
20260903053029 57 232 0.0 1.0 0.00 0.00 0.00
20260903050108 57 81 0.0 1.0 0.00 0.00 0.00
20260903043033 58 237 0.0 1.0 0.00 0.00 0.00
20260903040112 58 208 0.0 2.0 0.00 0.00 0.00
20260903033047 59 200 0.0 3.0 0.00 0.00 0.00
20260903030106 58 216 0.0 3.0 0.00 0.00 0.00
20260903023058 59 205 1.0 6.0 0.00 0.00 0.00
20260903020100 60 215 3.0 13.0 0.00 0.00 0.00
20260903013056 61 348 1.0 8.0 0.00 0.00 0.00
20260903010059 61 241 4.0 8.0 0.00 0.00 0.00
20260903003053 62 260 1.0 12.0 0.00 0.00 0.00